Location: Buchloe
(48.0161°N, 10.7316°E)
Time: 03:36:31
(UTC+02:00)

ISS - Pass Details

Date: 24 May 2018
Orbit: 402 x 407 km, 51.6° (Epoch: 23 May)

Event Time Altitude Azimuth Distance (km) Brightness Sun altitude
Rises 22:50:56 0° 261° (W) 2,316 0.4 -14.0°
Reaches altitude 10° 22:53:03 10° 266° (W) 1,457 -0.6 -14.2°
Maximum altitude 22:56:16 55° 346° (NNW) 489 -3.1 -14.5°
Drops below altitude 10° 22:59:29 10° 65° (ENE) 1,459 -1.1 -14.8°
Sets 23:01:36 0° 70° (ENE) 2,319 -0.1 -15.0°
